Showing default

QIANFAN-192, 69410

Orbit data source: Space-Track

QIANFAN-192, 69410 is a Chinese payload satellite in LEO that was launched on Fri, 05 Jun 2026 UTC via a CHANG ZHENG 8 launch vehicle from the Wenchang Satellite Launch Center (WSC). Payload-class satellites include a variety of spacecraft equipped with specific instruments for various scientific and technological missions. These include communications satellites like Starlink; space stations such as the ISS; scientific satellites like the Hubble; Earth observation satellites from companies like Planet Labs, Umbra, and HawkEye 360; GPS; miniature CubeSats for education and research; and military/defense satellites.

Loading next visibility...
Identifier
69410, 2026-125K
Orbit
LEO
Country
Flag of CNCN / PRC
Related business
Manufacturer
SECM?
Mission
Operational spacecraft
Bus & Motor
QIANFAN, Unknown motor
Mass
267 kg wet, ~267 kg dry
Launch date (UTC)
2026-06-05 (2 weeks ago)
Launch vehicle
CHANG ZHENG 8
Launch site
Wenchang Satellite Launch Center (WSC)
Object type
Payload
Rocket body
Debris
Shape & HBR
Unknown
Radar Cross Section
Large (>1 m²)

Expand to show TLE details & history
Last TLE update: 17 hours ago

TLE from 17 hours ago
0 QIANFAN-192
1 69410U 26125K   26171.20592247 -.01722977  00000-0 -94715+0 0  9996
2 69410  88.9949 280.1013 0012663 156.7497 203.4267 14.15802162  2131
Epoch: 2026-06-20T04:56Z
TLE epoch observation values (Epoch: 2026-06-20T04:56:31.701Z)
Latitude
0.00007°
Longitude
-62.45466°
Altitude
851.022 km
Speed
7.423 km/s
True Right ascension
18h 40m 24s
True Declination
0° 00' 00"
Sunlit
Object was in full shadow at epoch
Visualization orbit readout
Latitude
Unknown
Longitude
Unknown
Altitude
Unknown
Speed
Unknown
Apparent Right ascension
Unknown
Apparent Declination
Unknown
Sunlit
N/A
Visualization observer readout
Local Sidereal Time
08:33:25
Azimuth
Unknown
Elevation
Unknown
Doppler factor
Unknown
Orbital elements
Apogee altitude
845.678 km
Perigee altitude
827.406 km
Semi-major axis
7,214.679 km
Eccentricity
0.00127
Inclination
88.9949°
RAAN
280.1013°
Arg. of periapsis
156.7497°
True anomaly
203.36909°
Mean anomaly
203.4267°
Eccentric anomaly
203.39789°
Mean motion
3.54175 °/min
Orbital period
101.64 mins
BSTAR
-0.94715
Loading maneuver chart data...
Computing Atmospheric mass density...
Loading historical data...
Loading historical data...
Loading historical data...
Loading historical data...
Loading historical data...
Loading historical data...
Loading historical data...

Documentation

Showing up to 5 results
|